EHI
0 0 0 0 0 1 1 1 3 7 9 7 5 5 5 4 3 3 3 3 3 4 5 4 3 3 3 2 1 0 0 0 0 0 0 0 0 0 0 0 0 0 0
0 0 0 0 0 2 3 3 4 7 8 8 7 5 4 3 3 3 3 4 4 4 3 3 2 3 3 2 1 0 0 0 0 0 0 0 0 0 0 0 0 0 0
1 0 1 1 1 2 4 5 6 6 7 8 7 4 3 3 3 4 4 4 4 4 2 1 1 2 3 2 1 0 0 0 0 0 0 0 0 0 0 0 0 0 0
2 2 2 2 2 3 4 5 6 6 6 6 5 3 2 3 4 4 5 4 3 2 1 0 0 1 2 2 1 0 0 0 1 1 0 0 0 0 0 0 0 0 0
4 3 3 3 3 4 5 6 6 5 4 4 3 2 3 4 4 4 4 3 1 1 1 0 0 0 1 1 0 0 0 1 2 2 1 0 0 0 0 0 0 0 0
5 4 4 4 4 6 8 7 6 4 3 2 2 3 4 4 4 4 3 2 1 0 0 0 0 0 0 0 0 0 0 1 2 3 2 0 0 0 0 0 0 0 0
5 6 7 7 8 9 9 8 6 4 2 2 3 4 5 6 5 5 3 2 0 0 0 0 0 0 0 0 0 0 0 0 1 2 1 0 0 0 0 0 0 0 0
5 7 11 13 13 12 11 9 7 5 3 3 4 5 6 6 5 4 3 2 0 0 0 0 0 0 0 0 0 0 0 0 0 0 0 0 0 0 0 1 2 1 1
5 6 10 15 17 16 13 11 10 8 6 5 6 6 6 5 4 3 2 1 0 0 0 0 0 0 0 0 0 0 0 0 0 0 0 1 0 0 2 4 5 4 3
4 4 7 13 17 16 14 13 13 11 9 9 8 7 6 4 4 3 2 1 0 0 0 0 0 0 1 1 0 0 0 0 0 0 1 1 0 1 3 5 6 6 5
3 3 6 11 15 16 13 14 15 14 11 10 10 8 6 5 4 2 2 2 1 1 0 0 0 1 2 1 0 0 0 0 0 1 1 1 0 1 3 6 7 7 8
4 4 6 10 14 15 14 15 16 15 12 10 10 9 8 6 5 3 2 3 3 2 1 0 0 1 2 1 0 0 0 1 1 2 2 1 1 2 5 7 8 9 10
5 6 7 10 13 14 14 16 17 17 14 12 11 10 9 8 6 5 4 4 4 3 2 1 1 1 2 2 1 1 1 2 2 3 4 3 2 3 6 8 9 10 10
8 9 9 10 11 12 13 16 18 18 17 16 14 13 11 10 8 7 8 8 7 6 5 4 3 2 3 3 3 3 3 2 2 3 3 4 4 5 6 8 9 9 9
10 11 11 10 11 12 12 14 16 18 19 18 17 15 13 11 10 9 9 9 9 8 7 6 5 3 3 3 3 4 4 3 2 2 2 3 3 3 4 5 6 6 6
13 12 10 9 9 10 11 13 16 19 19 17 15 13 11 10 9 9 9 10 10 9 9 8 7 5 3 2 1 3 5 4 3 2 2 2 2 1 1 1 2 2 3
13 10 7 6 7 7 10 13 16 19 19 15 11 9 8 8 8 8 9 10 11 10 9 9 8 7 4 1 0 2 4 5 5 4 3 2 2 1 0 0 0 0 1
9 7 5 4 6 8 10 13 15 16 17 14 10 9 9 9 9 9 10 11 11 10 9 8 8 7 4 1 0 1 2 4 4 5 4 3 2 1 0 0 0 0 0
6 6 5 5 7 9 11 12 13 13 14 14 13 13 14 13 12 12 12 12 12 11 10 8 7 7 5 2 0 1 2 4 4 4 3 2 1 0 0 0 0 0 0
5 6 7 8 9 11 11 12 12 11 12 13 14 15 16 15 14 14 14 14 13 12 10 9 9 9 7 3 0 1 4 6 5 3 1 0 0 0 0 0 0 0 0
6 7 8 9 10 10 10 9 10 10 10 10 10 12 14 14 13 13 14 13 13 12 11 10 10 10 9 4 1 1 4 6 6 4 2 1 0 0 0 0 0 0 0
9 8 7 8 9 9 9 8 8 10 10 9 8 10 12 12 13 13 13 12 11 10 10 11 11 11 11 7 2 0 1 4 6 5 3 1 0 0 0 0 0 0 0
9 8 7 7 8 9 9 9 10 11 11 10 9 9 9 10 11 12 12 12 11 10 11 11 12 13 13 10 5 2 1 1 3 4 3 1 0 0 0 0 0 0 0
9 8 7 7 8 10 10 11 12 13 13 11 9 7 7 7 9 10 12 12 11 10 10 11 12 14 15 14 10 5 3 2 2 2 2 1 1 0 0 0 0 0 0
9 8 7 7 8 10 12 13 15 16 16 13 10 8 7 7 7 9 10 11 9 8 7 8 10 11 13 13 10 7 4 3 3 4 3 3 3 2 2 2 1 0 0
11 8 6 7 8 11 13 15 17 18 17 15 12 10 8 7 7 8 9 8 7 5 4 5 7 8 9 9 7 5 3 2 3 4 5 5 5 4 4 3 1 0 0
Wind_Speed
5 4 5 5 5 4 4 4 4 3 3 2 2 1 1 0 0 1 1 1 1 1 1 1 0 1 1 1 1 1 1 1 1 1 1 2 1 0 1 1 1 2 2
5 5 5 5 6 5 5 5 4 4 4 2 2 2 1 1 1 0 1 0 0 1 1 1 1 1 1 1 1 1 1 1 1 1 1 2 3 2 1 0 1 1 1
9 8 7 6 6 6 6 6 5 4 3 3 2 2 2 2 1 1 1 1 1 0 0 1 1 1 1 1 1 2 2 1 0 1 2 2 1 2 2 1 1 0 1
8 7 7 7 7 7 5 5 5 4 4 4 4 3 2 1 1 1 1 2 1 1 0 0 1 1 1 1 1 1 1 2 1 0 0 1 2 1 1 2 1 1 1
9 9 9 8 7 6 6 5 5 4 4 4 5 4 2 1 1 0 1 1 2 1 1 0 1 1 1 1 1 1 1 1 2 1 1 1 0 1 1 2 1 1 1
9 8 7 6 5 5 5 5 5 4 4 4 4 5 4 3 2 1 1 1 1 1 1 0 1 1 1 1 1 1 2 1 2 1 1 2 2 2 2 2 1 1 1
9 8 8 8 7 7 7 6 6 5 4 5 5 5 5 5 4 3 2 1 1 1 1 0 1 1 1 1 1 1 1 1 2 2 2 2 2 2 2 2 1 0 1
7 8 10 9 9 8 7 7 7 6 5 5 4 4 4 3 3 3 2 2 2 1 1 1 1 1 1 1 1 1 1 1 1 2 2 2 2 2 2 2 2 1 0
8 8 9 9 9 9 9 9 8 7 6 6 5 4 4 3 3 2 2 1 1 1 1 1 1 1 1 1 1 1 1 0 1 1 1 1 1 1 2 2 2 2 1
6 7 7 8 8 8 7 7 8 7 6 5 5 5 4 4 3 3 2 2 2 1 1 1 1 1 1 1 1 0 0 1 0 0 0 1 1 1 1 2 2 2 2
7 6 6 7 7 6 6 7 7 6 5 5 5 4 4 3 3 3 3 3 2 2 2 1 1 1 0 0 1 0 0 0 0 0 0 1 1 1 1 1 1 2 2
5 5 5 5 6 6 6 7 6 6 6 5 5 4 4 3 3 3 3 2 2 2 2 2 1 1 1 1 1 1 0 0 0 1 1 1 1 1 1 1 2 2 2
3 3 4 5 6 6 6 6 6 6 5 5 5 4 4 4 3 3 2 2 2 2 2 2 2 2 1 1 1 1 1 1 1 1 1 2 1 1 1 1 1 2 2
2 3 4 5 5 6 6 6 5 5 5 5 4 4 4 4 4 3 2 2 2 2 2 2 2 2 1 1 1 1 1 1 1 1 1 1 1 2 1 1 1 1 2
2 3 3 4 4 5 5 5 5 4 5 5 5 4 4 3 3 3 2 2 2 2 1 1 1 1 1 2 2 2 2 1 1 1 1 1 1 0 1 1 1 2 2
3 3 3 3 4 5 5 5 5 5 5 6 5 4 4 3 3 3 3 3 2 1 1 1 1 1 2 2 3 2 2 1 1 1 1 1 1 0 1 1 2 3 3
4 4 4 4 4 5 5 6 6 5 6 6 5 5 5 5 4 4 3 3 2 2 2 1 1 1 2 2 2 2 2 2 1 1 1 1 1 1 1 1 2 1 2
3 3 3 3 3 3 4 4 5 5 6 6 5 5 5 5 4 4 3 3 2 2 2 1 1 1 1 1 2 2 2 1 1 2 2 2 1 1 1 2 1 1 1
4 3 3 3 3 3 4 5 4 5 5 6 6 6 6 5 4 4 4 3 3 2 2 1 1 1 2 1 2 2 1 1 1 1 1 1 1 1 2 3 2 1 1
2 2 2 2 3 3 4 5 4 5 5 6 6 5 5 6 5 5 4 3 3 3 2 1 1 2 1 1 2 3 2 1 1 1 1 0 1 1 2 2 2 2 1
2 2 2 3 3 4 5 5 4 5 5 4 4 4 5 5 5 4 3 3 2 2 2 1 1 1 2 1 2 3 2 2 2 1 1 1 1 2 2 2 2 3 2
1 1 2 1 2 4 5 4 5 4 4 4 4 4 4 4 4 4 4 3 3 3 2 2 2 1 2 2 2 3 3 3 2 2 2 1 2 2 2 2 2 3 3
0 1 2 1 1 3 4 5 4 3 4 4 4 4 4 3 3 4 4 3 3 3 3 3 3 2 1 2 3 3 4 4 2 2 2 1 1 1 1 2 3 3 2
1 1 2 2 2 2 3 3 3 4 5 5 4 4 3 3 3 3 3 3 3 3 3 3 3 3 2 2 2 1 1 1 1 1 1 1 2 2 1 1 2 2 2
0 0 1 2 2 2 2 2 3 5 5 5 4 4 4 4 3 3 3 4 4 5 4 4 3 3 4 5 5 3 2 2 2 1 1 1 0 1 1 1 1 1 1
0 0 0 1 1 1 2 2 3 4 4 4 4 4 3 3 3 3 2 2 4 5 6 6 5 4 5 4 5 6 5 4 4 3 2 2 2 3 2 2 2 2 2
Wind_Direction
209 193 183 175 167 165 165 170 166 164 148 133 129 129 189 242 287 247 230 228 239 206 168 171 152 154 176 191 167 143 129 129 132 96 15 352 346 255 261 241 218 218 218
196 194 185 177 178 180 181 178 178 172 169 158 149 154 155 176 200 295 354 320 252 229 195 163 167 181 170 147 144 139 131 127 132 126 89 1 352 354 350 325 244 239 221
199 197 191 185 180 186 188 189 185 177 171 154 122 98 72 51 37 7 335 317 320 281 230 166 180 183 175 179 182 167 160 163 168 121 136 145 238 314 340 359 334 293 224
198 192 189 188 189 192 185 183 181 175 170 157 151 152 156 171 215 227 286 320 340 319 334 170 175 175 175 188 206 168 161 158 173 183 178 174 164 178 310 326 349 353 298
196 192 192 191 189 182 179 181 176 176 171 163 164 163 166 183 178 114 291 315 330 331 347 161 155 166 177 193 196 159 162 169 173 175 171 164 162 185 196 276 315 348 350
193 190 186 176 179 177 176 173 172 187 178 170 167 170 176 179 173 207 241 273 301 319 337 123 154 166 176 193 201 187 175 187 180 175 168 168 182 199 199 225 259 294 324
184 181 178 180 182 182 180 173 174 190 188 180 179 181 184 180 187 200 214 220 242 278 298 166 141 163 182 188 175 165 196 196 189 196 200 197 211 190 185 180 206 260 306
185 186 186 185 187 187 181 177 180 191 190 189 195 188 182 180 192 197 198 200 210 225 234 162 147 167 176 183 165 177 223 201 205 212 204 209 221 197 189 178 165 184 296
185 192 189 185 186 187 187 185 185 191 190 189 185 183 183 182 187 188 185 192 207 212 177 154 156 163 151 156 151 181 226 186 223 246 230 230 233 205 205 193 184 177 190
190 193 192 187 188 188 184 181 184 191 190 186 189 188 184 184 182 174 181 186 201 199 152 149 170 169 131 127 136 169 229 133 266 238 261 285 274 239 205 190 191 189 179
199 196 193 187 181 175 174 180 184 183 183 187 184 178 178 179 174 184 196 194 194 183 182 185 179 179 165 138 133 163 93 108 329 317 222 262 269 260 228 186 183 187 173
201 192 185 175 173 176 179 184 186 188 190 185 177 180 176 170 177 193 201 188 186 188 188 178 174 193 195 160 159 200 181 182 287 282 274 281 281 282 243 198 201 194 182
181 169 164 173 179 181 182 184 187 190 183 172 174 176 178 179 190 196 194 182 183 182 178 173 183 197 203 184 187 193 206 224 256 257 248 264 256 282 282 229 208 194 171
163 166 178 184 185 180 178 181 184 182 171 166 175 184 191 192 192 184 176 174 174 175 180 185 193 198 197 194 199 191 200 235 271 266 250 261 252 248 253 248 220 175 158
159 180 186 191 181 171 174 173 171 169 168 167 182 195 192 183 171 167 165 158 159 175 171 172 201 217 212 225 205 200 206 219 259 286 285 286 296 250 212 200 186 163 153
196 198 189 178 183 180 180 175 172 171 164 169 188 184 169 169 173 178 167 156 158 163 152 178 212 241 257 256 211 195 197 205 241 269 291 304 314 330 92 99 139 164 171
210 206 202 194 195 192 182 181 176 171 169 177 182 176 168 174 183 178 161 168 177 167 169 208 220 247 273 253 213 194 191 197 222 246 263 272 283 179 147 103 104 106 124
228 222 207 197 188 171 168 168 162 169 175 179 183 181 173 172 171 165 176 187 186 182 192 204 220 243 287 241 196 187 188 198 247 253 246 238 266 228 163 131 103 85 77
232 219 203 194 173 165 163 150 156 168 178 188 190 187 179 176 172 177 189 190 181 190 196 192 207 225 275 255 191 172 165 182 270 279 269 234 238 230 160 143 136 96 44
232 202 177 163 162 170 153 154 171 177 194 200 198 189 181 180 184 189 187 183 182 194 186 185 216 220 250 257 192 178 177 200 251 302 318 317 218 209 171 169 164 172 230
241 190 154 163 182 164 151 168 182 199 203 190 183 182 182 185 181 179 174 166 170 166 165 189 231 232 244 250 203 187 188 201 214 242 271 279 207 189 186 181 182 191 169
315 168 152 175 177 160 161 179 203 202 174 167 171 178 181 184 174 168 166 161 163 164 184 206 243 257 260 255 240 200 197 201 200 227 246 249 201 186 184 179 173 155 139
200 190 166 180 177 171 174 192 208 171 162 163 174 179 177 179 170 171 170 166 172 186 202 211 233 253 254 254 241 215 204 205 207 224 225 211 163 163 173 169 160 156 156
190 172 160 177 214 205 203 207 180 161 163 173 180 173 172 179 175 180 177 180 191 202 208 215 229 240 242 238 226 220 210 215 215 229 153 135 125 133 149 143 156 170 174
319 175 189 200 222 205 205 200 173 162 169 176 182 179 178 177 182 189 195 199 207 206 205 216 218 218 237 236 215 193 203 210 205 156 118 107 137 179 205 211 190 182 174
167 145 244 237 248 202 200 193 173 166 170 184 183 182 182 182 185 191 203 212 214 215 218 222 221 229 232 227 210 209 209 196 163 150 181 203 206 215 215 214 218 212 210